Creston, IA

6:08 AM CDT on July 26, 2016 (GMT -0500)
Creston Municipal

Weather History for KCSQ - January, 2014

Change the Weather History Date:

Thursday, January 16, 2014

  Actual Average Record
Temperature  
Mean Temperature 24 °F -  
Max Temperature 39 °F 31 °F 57 °F (1990)
Min Temperature 10 °F 11 °F -19 °F (1977)
Degree Days  
Heating Degree Days 40    
Moisture  
Dew Point 19 °F    
Average Humidity 71    
Maximum Humidity 100    
Minimum Humidity 49    
Precipitation  
Precipitation 0.00 in - - ()
Sea Level Pressure  
Sea Level Pressure 29.76 in    
Wind  
Wind Speed 19 mph (WNW)    
Max Wind Speed 43 mph    
Max Gust Speed 56 mph    
Visibility 8 miles    
Events Rain , Snow    
Averages and records for this station are not official NWS values.
T = Trace of Precipitation, MM = Missing Value Source: NWS Daily Summary

Daily Weather History Graph

Daily Weather History Graph

Search for Another Location

Airport or City:

Trip Planner

Search our weather history database for the weather conditions in past years. The results will help you decide how hot, cold, wet, or windy it might be!

Date:

Astronomy

Jan. 16, 2014 Rise Set
Actual Time 7:39 AM CST 5:15 PM CST
Civil Twilight 7:09 AM CST 5:45 PM CST
Nautical Twilight 6:35 AM CST 6:19 PM CST
Astronomical Twilight 6:02 AM CST 6:52 PM CST
Moon 6:08 PM CST (1/16) 7:33 AM CST (1/16)
Length of Visible Light 10h 35m
Length of Day
9h 35m
Full, 100% of the Moon is Illuminated
Jan 16
Full
Jan 23
Last Quarter
Jan 30
New
Feb 6
First Quarter
Feb 14
Full

Hourly Weather History & Observations

Time (CST) Temp. Windchill Dew Point Humidity Pressure Visibility Wind Dir Wind Speed Gust Speed Precip Events Conditions
12:15 AM 28.4 °F 21.2 °F 21.2 °F 74% 29.72 in 10.0 mi SW 6.9 mph - N/A   Partly Cloudy
12:35 AM 28.4 °F 19.1 °F 21.2 °F 74% 29.72 in 10.0 mi WSW 10.4 mph - N/A   Mostly Cloudy
12:55 AM 30.2 °F 21.3 °F 23.0 °F 75% 29.71 in 10.0 mi WSW 10.4 mph 17.3 mph N/A   Overcast
1:15 AM 30.2 °F 21.9 °F 23.0 °F 75% 29.71 in 10.0 mi West 9.2 mph - N/A   Overcast
1:35 AM 32.0 °F 24.2 °F 24.8 °F 75% 29.69 in 10.0 mi WSW 9.2 mph - N/A   Overcast
1:55 AM 33.8 °F 23.5 °F 24.8 °F 70% 29.66 in 10.0 mi WSW 16.1 mph 21.9 mph N/A   Mostly Cloudy
2:15 AM 33.8 °F 24.3 °F 24.8 °F 70% 29.66 in 10.0 mi WSW 13.8 mph - N/A   Partly Cloudy
2:35 AM 33.8 °F 24.8 °F 24.8 °F 70% 29.66 in 10.0 mi WSW 12.7 mph 20.7 mph N/A   Clear
2:55 AM 33.8 °F 24.3 °F 26.6 °F 75% 29.66 in 10.0 mi West 13.8 mph - N/A   Clear
3:15 AM 35.6 °F 26.2 °F 26.6 °F 70% 29.66 in 10.0 mi West 15.0 mph - N/A   Clear
3:35 AM 37.4 °F 28.2 °F 26.6 °F 65% 29.66 in 10.0 mi West 16.1 mph - N/A   Partly Cloudy
3:55 AM 35.6 °F 27.1 °F 24.8 °F 65% 29.65 in 10.0 mi West 12.7 mph - N/A   Clear
4:15 AM 35.6 °F 26.2 °F 26.6 °F 70% 29.65 in - West 15.0 mph - N/A   Clear
4:35 AM 35.6 °F 26.2 °F 24.8 °F 65% 29.65 in 10.0 mi West 15.0 mph - N/A   Clear
4:55 AM 37.4 °F 27.5 °F 23.0 °F 56% 29.65 in 10.0 mi WNW 18.4 mph 27.6 mph N/A   Clear
5:15 AM 39.2 °F 29.3 °F 23.0 °F 52% 29.65 in 10.0 mi WNW 20.7 mph 33.4 mph N/A   Clear
5:35 AM 37.4 °F 27.8 °F 23.0 °F 56% 29.65 in 10.0 mi WNW 17.3 mph 27.6 mph N/A   Clear
5:55 AM 37.4 °F 28.2 °F 23.0 °F 56% 29.65 in 10.0 mi WNW 16.1 mph - N/A   Mostly Cloudy
6:15 AM 37.4 °F 27.5 °F 23.0 °F 56% 29.66 in 10.0 mi WNW 18.4 mph - N/A   Scattered Clouds
6:35 AM 37.4 °F 26.9 °F 23.0 °F 56% 29.66 in 10.0 mi WNW 20.7 mph 27.6 mph N/A   Partly Cloudy
6:55 AM 35.6 °F 24.5 °F 23.0 °F 60% 29.66 in 10.0 mi WNW 20.7 mph 27.6 mph N/A   Mostly Cloudy
7:15 AM 37.4 °F 26.4 °F 23.0 °F 56% 29.67 in 10.0 mi WNW 23.0 mph 28.8 mph N/A   Overcast
7:35 AM 37.4 °F 26.4 °F 26.6 °F 65% 29.67 in 10.0 mi WNW 23.0 mph 34.5 mph N/A   Overcast
7:55 AM 37.4 °F 26.6 °F 26.6 °F 65% 29.68 in 10.0 mi WNW 21.9 mph 32.2 mph N/A   Scattered Clouds
8:15 AM 37.4 °F 26.6 °F 26.6 °F 65% 29.69 in 10.0 mi WNW 21.9 mph 27.6 mph N/A   Overcast
8:35 AM 37.4 °F 25.6 °F 24.8 °F 60% 29.69 in 10.0 mi WNW 26.5 mph 33.4 mph N/A   Overcast
8:55 AM 39.2 °F 27.8 °F 21.2 °F 49% 29.70 in 10.0 mi NW 27.6 mph 39.1 mph N/A   Mostly Cloudy
9:15 AM 39.2 °F 26.5 °F 21.2 °F 49% 29.70 in 10.0 mi NNW 35.7 mph 49.5 mph N/A   Mostly Cloudy
9:35 AM 37.4 °F 24.8 °F 21.2 °F 52% 29.71 in 10.0 mi NW 31.1 mph 39.1 mph N/A   Overcast
9:55 AM 35.6 °F 21.9 °F 23.0 °F 60% 29.72 in 10.0 mi NNW 33.4 mph 43.7 mph N/A   Overcast
10:15 AM 32.0 °F 17.4 °F 26.6 °F 80% 29.74 in 2.0 mi NW 31.1 mph 42.6 mph N/A Snow Light Snow
10:35 AM 32.0 °F 19.8 °F 28.4 °F 87% 29.74 in 1.5 mi NW 20.7 mph 29.9 mph N/A Snow Light Snow
10:55 AM 32.0 °F 19.8 °F 28.4 °F 87% 29.74 in 4.0 mi NW 20.7 mph 28.8 mph N/A Snow Light Snow
11:15 AM 32.0 °F 19.8 °F 28.4 °F 87% 29.74 in 9.0 mi NW 20.7 mph 27.6 mph N/A Snow Light Snow
11:35 AM 32.0 °F 20.5 °F 28.4 °F 87% 29.73 in 10.0 mi NW 18.4 mph 26.5 mph N/A Snow Light Snow
11:55 AM 32.0 °F 20.8 °F 26.6 °F 80% 29.73 in 4.0 mi NW 17.3 mph 27.6 mph N/A Snow Light Snow
12:15 PM 32.0 °F 21.2 °F 28.4 °F 87% 29.72 in 10.0 mi NW 16.1 mph 23.0 mph N/A   Overcast
12:35 PM 33.8 °F 23.9 °F 28.4 °F 81% 29.71 in 5.0 mi NW 15.0 mph 21.9 mph N/A Snow Light Snow
12:55 PM 32.0 °F 22.5 °F 30.2 °F 93% 29.71 in 0.8 mi NW 12.7 mph - N/A Snow Light Snow
1:15 PM 32.0 °F 23.6 °F 32.0 °F 100% 29.70 in 1.5 mi WNW 10.4 mph - N/A Snow Light Snow
1:35 PM 33.8 °F 21.9 °F 32.0 °F 93% 29.69 in 1.8 mi WNW 21.9 mph - N/A Snow Light Snow
1:55 PM 33.8 °F 22.8 °F 30.2 °F 87% 29.69 in 8.0 mi WNW 18.4 mph - N/A   Mostly Cloudy
2:15 PM 33.8 °F 21.3 °F 30.2 °F 87% 29.70 in 2.5 mi NW 24.2 mph 34.5 mph N/A Snow Light Snow
2:35 PM 35.6 °F 25.2 °F 28.4 °F 75% 29.69 in 10.0 mi WNW 18.4 mph 26.5 mph N/A   Mostly Cloudy
2:55 PM 33.8 °F 21.9 °F 28.4 °F 81% 29.69 in 10.0 mi WNW 21.9 mph 27.6 mph N/A   Mostly Cloudy
3:15 PM 35.6 °F 24.0 °F 26.6 °F 70% 29.68 in 10.0 mi WNW 23.0 mph - N/A   Mostly Cloudy
3:35 PM 30.2 °F 15.4 °F 28.4 °F 93% 29.71 in 0.5 mi WNW 28.8 mph 42.6 mph N/A Snow Light Snow
3:55 PM 32.0 °F 15.8 °F 23.0 °F 69% 29.72 in 10.0 mi NW 40.3 mph 55.2 mph N/A   Mostly Cloudy
4:15 PM 30.2 °F 13.5 °F 19.4 °F 64% 29.75 in 10.0 mi WNW 39.1 mph 48.3 mph N/A   Overcast
4:35 PM 24.8 °F 5.7 °F 17.6 °F 74% 29.78 in 6.0 mi NW 40.3 mph 50.6 mph N/A Snow Light Snow
4:55 PM 21.2 °F 0.7 °F 15.8 °F 80% 29.80 in 0.8 mi NNW 40.3 mph 48.3 mph N/A Snow Light Snow
5:15 PM 17.6 °F -2.2 °F 12.2 °F 79% 29.84 in 4.0 mi NNW 31.1 mph 44.9 mph N/A Snow Light Snow
5:35 PM 15.8 °F -6.1 °F 5.0 °F 62% 29.86 in 5.0 mi NW 36.8 mph 51.8 mph N/A Snow Light Snow
5:55 PM 15.8 °F -5.2 °F 5.0 °F 62% 29.87 in 9.0 mi NW 33.4 mph 47.2 mph N/A Snow Light Snow
6:15 PM 14.0 °F -9.8 °F 1.4 °F 57% 29.88 in 10.0 mi NW 42.6 mph 56.4 mph N/A   Overcast
6:35 PM 12.2 °F -10.2 °F 1.4 °F 62% 29.90 in 10.0 mi NW 33.4 mph 49.5 mph N/A   Mostly Cloudy
6:55 PM 12.2 °F -9.9 °F 3.2 °F 67% 29.90 in 9.0 mi NW 32.2 mph 41.4 mph N/A Snow Light Snow
7:15 PM 12.2 °F -6.7 °F 3.2 °F 67% 29.91 in 10.0 mi NNW 21.9 mph 34.5 mph N/A   Mostly Cloudy
7:35 PM 10.4 °F -7.7 °F 3.2 °F 73% 29.92 in 10.0 mi NNW 18.4 mph 35.7 mph N/A Snow Light Snow
7:55 PM 10.4 °F -9.5 °F 5.0 °F 79% 29.93 in 7.0 mi NW 23.0 mph 28.8 mph N/A Snow Light Snow
8:15 PM 10.4 °F -11.7 °F 1.4 °F 67% 29.93 in 9.0 mi NW 29.9 mph 46.0 mph N/A   Overcast
8:35 PM 10.4 °F -10.7 °F 3.2 °F 73% 29.94 in 6.0 mi NNW 26.5 mph 34.5 mph N/A Snow Light Snow
8:55 PM 10.4 °F -11.7 °F 3.2 °F 73% 29.95 in 3.0 mi NNW 29.9 mph 42.6 mph N/A Rain Light Freezing Rain
9:15 PM 10.4 °F -9.5 °F 1.4 °F 67% 29.95 in 8.0 mi NNW 23.0 mph 35.7 mph N/A Rain Light Freezing Rain
9:35 PM 10.4 °F -9.9 °F 1.4 °F 67% 29.95 in 10.0 mi NNW 24.2 mph 32.2 mph N/A   Overcast
9:55 PM 10.4 °F -9.5 °F 3.2 °F 73% 29.95 in 7.0 mi NW 23.0 mph - N/A Snow Light Snow
10:15 PM 10.4 °F -12.3 °F 5.0 °F 79% 29.95 in 2.5 mi NW 32.2 mph 39.1 mph N/A Snow Light Snow
10:30 PM 10.4 °F -10.7 °F 1.4 °F 67% 29.95 in 10.0 mi NNW 26.5 mph 34.5 mph N/A   Mostly Cloudy
10:55 PM 10.4 °F -9.1 °F 5.0 °F 79% 29.96 in 7.0 mi NW 21.9 mph 29.9 mph N/A   Overcast
11:15 PM 12.2 °F -6.3 °F 5.0 °F 73% 29.96 in 4.0 mi NW 20.7 mph - N/A Snow Light Snow
11:35 PM 12.2 °F -7.5 °F 5.0 °F 73% 29.96 in 6.0 mi NNW 24.2 mph 34.5 mph N/A Snow Light Snow